{"data":{"norad_id":68555,"epoch":"2026-09-19T11:56:06.430560Z","epoch_age_seconds":131881,"freshness":"FRESH","line1":"1 68555U 26070P   26262.49729665  .00012030  00000+0  36659-3 0  9997","line2":"2 68555  53.1587 178.3837 0000898  76.6926 283.4177 15.34401374 26280","mean_motion":15.34401374,"eccentricity":8.98e-5,"inclination_deg":53.1587,"raan_deg":178.3837,"arg_perigee_deg":76.6926,"mean_anomaly_deg":283.4177,"bstar":0.00036659,"rev_number":2628,"period_min":93.847674044119,"perigee_km":462.08484930575,"apogee_km":463.31346347944,"semimajor_km":6840.8361563926,"source":"CELESTRAK","updated_at":"2026-09-20T09:00:43.935212Z"}}